Вернуться в каталог

STARLINK-30871

АктивенСвязьVLEO
NORAD 58228·PAYLOAD·🇺🇸 United States

Запущен Nov 3, 2023 с Cape Canaveral Space Force Station

Loading…

Ближайшие Пролёты (ближайшие 24 часа)

TLE

СвежийSource: CelesTrak SupGP

Эпоха: Sep 15, 2026, 02:38 UTC

1 58228C 23170Y   26258.11020833  .00000659  00000+0  23864-4 0  2583
2 58228  43.0005 204.6545 0001218 264.5338 203.1231 15.27577747    13

Отслеживайте STARLINK-30871 в реальном времени с AllMySat

Download on the App Store